[[{"header":{"parameterUnit":"m.s-1","parameterCategory":1,"la1":30.2991,"la2":30.254,"lo1":-89.0895,"lo2":-89.0444,"dy":0.0017,"dx":0.0017,"nx":28,"ny":28,"refTime":"2025-11-26T03:00:00:Z","depth":0,"parameterNumber":2,"parameterNumberName":"U-component_of_WINDS"},"data":[0,0,0,0,0,0,0,0,0,0,0,0,0,0,0,0,0,0,0,0,0,0,0,0,0,0,0,0,0,0,0,0,0,0,0,0,0,0,0,0,0,0,0,0,0,0,0,0,0,0,0,0,0,0,0,0,0,0,0.6784,0.6784,0,0.6797,0.6797,0.6797,0.6814,0.6814,0.6814,0.6815,0.6827,0.6827,0.6827,0,0,0,0,0,0,0,0,0,0,0,0,0,0.6774,0.6774,0.6784,0.6784,0.6784,0.6797,0.6797,0.6797,0.6814,0.6814,0.6814,0.6815,0.6827,0.6827,0.6827,0,0,0,0,0,0,0,0,0,0,0,0,0,0.6781,0.6774,0.6784,0.6794,0.6795,0.6797,0.6797,0.6797,0.6814,0.6814,0.6814,0.6815,0.6827,0.6827,0.6827,0.682,0,0,0.6828,0.6828,0,0,0,0,0,0,0,0,0.6781,0.6782,0.6792,0.6793,0.6794,0.6804,0.6798,0.6805,0.6814,0.6807,0.6815,0.6815,0.6819,0.682,0.6821,0.682,0.6821,0.6828,0.6828,0.6828,0.6828,0,0,0,0,0,0,0,0.678,0.6781,0.6789,0.6792,0.6794,0.6798,0.68,0.6799,0.681,0.6807,0.6808,0.681,0.682,0.6821,0.6822,0.6821,0.6828,0.6828,0.6828,0.6828,0.6815,0.6815,0,0,0,0,0,0,0.6778,0.6781,0.6788,0.6789,0.6789,0.6798,0.68,0.6801,0.681,0.6812,0.6809,0.6811,0.6821,0.6822,0.6822,0.6814,0.6828,0.6828,0.6828,0.6816,0.6815,0.6815,0,0,0,0,0,0,0.6778,0.6779,0.6788,0.6785,0.6787,0.6798,0.6799,0.6801,0.6802,0.6812,0.6814,0.6809,0.6821,0.6822,0.6821,0.6815,0.6828,0.6828,0.6816,0.6816,0.6815,0.6798,0,0,0,0,0,0,0.6778,0.6779,0.6776,0.6785,0.6787,0.6786,0.6798,0.6801,0.6802,0.6804,0.6812,0.6814,0.6822,0.682,0.6821,0.6816,0.6828,0.6817,0.6816,0.6815,0.6799,0.6797,0.6795,0,0,0,0,0,0.6777,0.677,0.6776,0.6776,0.6784,0.6785,0.6786,0.6796,0.6802,0.6799,0.6806,0.6814,0.6816,0.682,0.6821,0.6815,0.6817,0.6816,0.6815,0.68,0.6798,0.6796,0,0,0,0,0,0,0.6759,0.6772,0.6778,0.6773,0.6778,0.6788,0.6785,0.6792,0.6795,0.6797,0.6808,0.681,0.6807,0.6811,0.6815,0.6809,0.6818,0.6817,0.6806,0.6804,0.6802,0.6801,0.6828,0,0,0,0,0,0.6755,0.6756,0.6766,0.6762,0.6764,0.6774,0.6775,0.6782,0.6787,0.6789,0.6796,0.6801,0.6803,0.6804,0.6806,0.6801,0.6803,0.6797,0.6795,0.6794,0.6793,0.6791,0.6788,0.6812,0.6812,0.6812,0,0,0.6746,0.6753,0.6752,0.6758,0.6763,0.6763,0.6775,0.6775,0.6776,0.6789,0.6788,0.6793,0.68,0.6796,0.6795,0.68,0.6787,0.6793,0.6791,0.6791,0.679,0.6787,0.6785,0.6811,0.6811,0.6812,0,0,0.6729,0.6734,0.6731,0.6736,0.6743,0.675,0.6749,0.6758,0.6762,0.6762,0.6772,0.6773,0.6776,0.678,0.6782,0.6769,0.6776,0.6769,0.6759,0.6757,0.6755,0.6753,0.6748,0.6746,0.6768,0.6768,0.6768,0,0.6717,0.6718,0.6728,0.6728,0.673,0.6743,0.674,0.6744,0.6752,0.6753,0.6758,0.6763,0.6768,0.6766,0.6763,0.6765,0.6764,0.6768,0.6754,0.6753,0.6751,0.6747,0.6745,0.6767,0.6768,0.6768,0.6768,0,0.6702,0.6703,0.6699,0.6707,0.6709,0.6707,0.6718,0.6719,0.6726,0.6732,0.6732,0.6739,0.6743,0.6743,0.675,0.6742,0.6745,0.6752,0.6761,0.6748,0.6744,0.6742,0.6766,0.6767,0.6767,0.6767,0,0,0.6673,0.6687,0.6686,0.669,0.6699,0.67,0.6699,0.6703,0.6704,0.6709,0.6709,0.6712,0.6718,0.6721,0.6729,0.6727,0.6716,0.6734,0.6735,0.6731,0.6709,0.6703,0.6701,0.6722,0.6721,0.6721,0.6708,0,0.6658,0.6657,0.6667,0.6664,0.6665,0.6678,0.6677,0.6683,0.669,0.6691,0.6699,0.67,0.6709,0.6711,0.671,0.6718,0.6712,0.6719,0.6721,0.6721,0.6719,0.6699,0.6693,0.668,0.6707,0.6707,0.6706,0,0.664,0.6644,0.6641,0.6651,0.6652,0.6651,0.6657,0.6658,0.6665,0.667,0.6674,0.6683,0.6683,0.6692,0.6693,0.6697,0.6699,0.6703,0.6703,0.6703,0.6712,0.6698,0.6676,0.6674,0.6704,0.6704,0.6704,0,0.6619,0.6624,0.6623,0.6626,0.6638,0.6637,0.6642,0.665,0.6652,0.6657,0.6659,0.6663,0.6666,0.6669,0.6679,0.6685,0.6679,0.6689,0.6683,0.6683,0.668,0.668,0.6658,0.6682,0.6682,0.6682,0.6682,0,0.66,0.6598,0.6614,0.6613,0.6611,0.6623,0.662,0.6627,0.6634,0.6634,0.6646,0.6647,0.666,0.6662,0.667,0.667,0.6671,0.6675,0.6677,0.6674,0.6673,0.6674,0.6675,0.6682,0.6682,0.6682,0.6682,0,0.6576,0.6587,0.6587,0.6598,0.6601,0.6599,0.6609,0.6609,0.6617,0.6618,0.6619,0.6631,0.6634,0.6645,0.6651,0.6656,0.6653,0.6657,0.6651,0.6652,0.6646,0.6646,0.6623,0.6621,0.6647,0.6646,0.6646,0,0.6563,0.6562,0.6574,0.6575,0.658,0.6582,0.6585,0.6598,0.66,0.6609,0.6607,0.6612,0.6616,0.6621,0.663,0.6635,0.6639,0.6631,0.664,0.6637,0.6639,0.6638,0.6638,0.6628,0.6628,0.6628,0.6628,0,0.654,0.6545,0.6549,0.6554,0.6557,0.6562,0.6568,0.6569,0.6583,0.6585,0.6589,0.6592,0.6598,0.6603,0.6609,0.6614,0.6623,0.6625,0.6624,0.662,0.6616,0.6618,0.6645,0.6625,0.6625,0.6626,0.6626,0.6626,0.6521,0.652,0.6529,0.6532,0.6538,0.6543,0.6544,0.6552,0.6556,0.6562,0.6569,0.6572,0.6581,0.659,0.6595,0.6598,0.6603,0.6601,0.6601,0.66,0.6598,0.6616,0.6599,0.6599,0.6599,0.66,0.66,0,0.6497,0.6504,0.6507,0.6515,0.6518,0.6527,0.6534,0.6536,0.6539,0.6546,0.655,0.6554,0.6559,0.6569,0.6575,0.6575,0.6579,0.6576,0.6576,0.6577,0.6594,0.6594,0.6572,0.6572,0.6572,0.6572,0.6572,0.6573,0.6486,0.6485,0.6492,0.6495,0.6501,0.6505,0.6508,0.6513,0.6519,0.6523,0.6527,0.6534,0.6543,0.6549,0.6554,0.6557,0.6558,0.6554,0.6558,0.6573,0.6576,0.6578,0.6579,0.6554,0.6554,0.6541,0.6541,0.6541]},{"header":{"parameterUnit":"m.s-1","parameterCategory":1,"la1":30.2991,"la2":30.254,"lo1":-89.0895,"lo2":-89.0444,"dy":0.0017,"dx":0.0017,"nx":28,"ny":28,"refTime":"2025-11-26T03:00:00:Z","depth":0,"parameterNumber":3,"parameterNumberName":"V-component_of_WINDS"},"data":[0,0,0,0,0,0,0,0,0,0,0,0,0,0,0,0,0,0,0,0,0,0,0,0,0,0,0,0,0,0,0,0,0,0,0,0,0,0,0,0,0,0,0,0,0,0,0,0,0,0,0,0,0,0,0,0,0,0,-5.7328,-5.7329,0,-5.7425,-5.7426,-5.7427,-5.7406,-5.7404,-5.7403,-5.7401,-5.7494,-5.7498,-5.7502,0,0,0,0,0,0,0,0,0,0,0,0,0,-5.7124,-5.7127,-5.7328,-5.733,-5.7331,-5.7424,-5.7426,-5.7427,-5.7406,-5.7404,-5.7402,-5.74,-5.7493,-5.7498,-5.7503,0,0,0,0,0,0,0,0,0,0,0,0,0,-5.7215,-5.7129,-5.7328,-5.7332,-5.7333,-5.7424,-5.7426,-5.7427,-5.7407,-5.7404,-5.7402,-5.7399,-5.7491,-5.7497,-5.7503,-5.7595,0,0,-5.7522,-5.7525,0,0,0,0,0,0,0,0,-5.721,-5.7223,-5.733,-5.7332,-5.7333,-5.7401,-5.7388,-5.7483,-5.7408,-5.7379,-5.7401,-5.7398,-5.7465,-5.7473,-5.7497,-5.7599,-5.7603,-5.7523,-5.7527,-5.7529,-5.7531,0,0,0,0,0,0,0,-5.7204,-5.7218,-5.7366,-5.7332,-5.7334,-5.7328,-5.7338,-5.7406,-5.7435,-5.7381,-5.738,-5.7392,-5.7465,-5.7491,-5.7499,-5.7605,-5.7523,-5.7528,-5.7532,-5.7534,-5.7788,-5.7791,0,0,0,0,0,0,-5.7196,-5.7213,-5.7363,-5.7369,-5.7264,-5.7334,-5.7345,-5.7382,-5.7435,-5.744,-5.7394,-5.739,-5.7482,-5.7492,-5.7502,-5.7614,-5.7529,-5.7535,-5.7539,-5.7785,-5.7789,-5.7792,0,0,0,0,0,0,-5.7192,-5.721,-5.7359,-5.7291,-5.731,-5.734,-5.7381,-5.7385,-5.7411,-5.7444,-5.7449,-5.7415,-5.748,-5.7493,-5.7573,-5.7617,-5.7538,-5.7544,-5.7782,-5.7787,-5.7791,-5.7837,0,0,0,0,0,0,-5.7186,-5.7209,-5.7244,-5.7292,-5.7313,-5.743,-5.7384,-5.7389,-5.7422,-5.7418,-5.7465,-5.7471,-5.7479,-5.7564,-5.7579,-5.7624,-5.7548,-5.7778,-5.7784,-5.7789,-5.7832,-5.7843,-5.7852,0,0,0,0,0,-5.7179,-5.7252,-5.7246,-5.7264,-5.7359,-5.7432,-5.7444,-5.7454,-5.7426,-5.7462,-5.7484,-5.7469,-5.761,-5.7572,-5.7589,-5.7636,-5.7775,-5.7782,-5.7789,-5.7827,-5.7841,-5.7852,0,0,0,0,0,0,-5.7206,-5.7258,-5.7252,-5.7343,-5.7384,-5.7428,-5.7474,-5.7467,-5.7515,-5.7509,-5.7517,-5.7528,-5.7609,-5.7631,-5.7588,-5.7728,-5.7688,-5.7699,-5.7712,-5.7725,-5.7735,-5.7728,-5.7554,0,0,0,0,0,-5.7224,-5.728,-5.7322,-5.7398,-5.7419,-5.7443,-5.7475,-5.7479,-5.7521,-5.7537,-5.7565,-5.7604,-5.7658,-5.7692,-5.7743,-5.7835,-5.7845,-5.7876,-5.7886,-5.7894,-5.7903,-5.7955,-5.7969,-5.7815,-5.7815,-5.7815,0,0,-5.7258,-5.7294,-5.7328,-5.7404,-5.7436,-5.7494,-5.7457,-5.7519,-5.7562,-5.7546,-5.7623,-5.7645,-5.769,-5.7777,-5.7816,-5.7797,-5.7949,-5.7903,-5.7909,-5.7914,-5.7963,-5.7978,-5.7991,-5.7819,-5.7819,-5.7818,0,0,-5.7351,-5.7384,-5.7452,-5.7485,-5.7535,-5.7551,-5.7567,-5.7614,-5.7629,-5.7707,-5.7697,-5.7747,-5.7838,-5.7871,-5.7899,-5.8008,-5.7996,-5.8024,-5.8076,-5.8127,-5.8139,-5.815,-5.8189,-5.8203,-5.8032,-5.8033,-5.8033,0,-5.7388,-5.7476,-5.7487,-5.7551,-5.7585,-5.7576,-5.7644,-5.7675,-5.7738,-5.7761,-5.7739,-5.7855,-5.7884,-5.7979,-5.8006,-5.8029,-5.8048,-5.8018,-5.8136,-5.8147,-5.8158,-5.8195,-5.821,-5.8036,-5.8035,-5.8035,-5.8035,0,-5.7519,-5.758,-5.7628,-5.7692,-5.7731,-5.7797,-5.7817,-5.7856,-5.7857,-5.7875,-5.7956,-5.7991,-5.8049,-5.8072,-5.8073,-5.8168,-5.8154,-5.8134,-5.8094,-5.8175,-5.8211,-5.8225,-5.804,-5.8039,-5.8038,-5.8037,0,0,-5.763,-5.7701,-5.7719,-5.7749,-5.7804,-5.7851,-5.7916,-5.7976,-5.8008,-5.8052,-5.8107,-5.8186,-5.8169,-5.8201,-5.8206,-5.825,-5.8335,-5.8225,-5.8226,-5.8244,-5.8442,-5.8457,-5.8474,-5.8328,-5.8331,-5.8333,-5.8439,0,-5.7729,-5.7847,-5.7859,-5.7964,-5.8021,-5.8014,-5.8071,-5.8111,-5.813,-5.818,-5.82,-5.8257,-5.8229,-5.8249,-5.8292,-5.8315,-5.8374,-5.8308,-5.8378,-5.8381,-5.8368,-5.8492,-5.8508,-5.8606,-5.8453,-5.8455,-5.8457,0,-5.7859,-5.791,-5.8021,-5.807,-5.8095,-5.8146,-5.8202,-5.8251,-5.8295,-5.8306,-5.8344,-5.8344,-5.8411,-5.8368,-5.8461,-5.8415,-5.8445,-5.8461,-5.8465,-5.8471,-5.8424,-5.8503,-5.8638,-5.8653,-5.8478,-5.8477,-5.8475,0,-5.7931,-5.8026,-5.8106,-5.8131,-5.819,-5.8227,-5.8253,-5.8295,-5.8331,-5.8379,-5.8403,-5.8458,-5.8488,-5.853,-5.8544,-5.8512,-5.8637,-5.8595,-5.8647,-5.8647,-5.8673,-5.8671,-5.8815,-5.8692,-5.8692,-5.8692,-5.8691,0,-5.8039,-5.8108,-5.8139,-5.8188,-5.8264,-5.8278,-5.8353,-5.8377,-5.8415,-5.8468,-5.8465,-5.8514,-5.853,-5.8581,-5.8592,-5.8668,-5.8681,-5.8691,-5.8694,-5.8692,-5.8691,-5.8712,-5.8705,-5.8696,-5.8695,-5.8694,-5.8693,0,-5.8132,-5.8155,-5.8241,-5.8292,-5.8306,-5.836,-5.8402,-5.8449,-5.8468,-5.8535,-5.8552,-5.8581,-5.8642,-5.8661,-5.8734,-5.8741,-5.883,-5.8825,-5.8815,-5.8816,-5.8867,-5.8862,-5.9029,-5.9052,-5.8914,-5.8915,-5.8916,0,-5.82,-5.8253,-5.8309,-5.8346,-5.8374,-5.8432,-5.8469,-5.8485,-5.8523,-5.858,-5.862,-5.8681,-5.8731,-5.8828,-5.8856,-5.8912,-5.8909,-5.8964,-5.8917,-5.8914,-5.891,-5.8907,-5.8913,-5.8972,-5.8974,-5.8975,-5.8976,0,-5.8318,-5.8328,-5.8383,-5.8442,-5.8487,-5.8534,-5.8579,-5.8609,-5.8631,-5.8675,-5.8738,-5.8777,-5.8853,-5.8914,-5.8971,-5.8996,-5.899,-5.8991,-5.9006,-5.9004,-5.8997,-5.9002,-5.884,-5.8986,-5.8985,-5.8984,-5.8984,-5.8983,-5.8401,-5.8448,-5.8497,-5.8558,-5.8594,-5.8637,-5.8684,-5.8711,-5.8765,-5.8829,-5.8835,-5.8904,-5.8949,-5.9026,-5.9054,-5.9108,-5.9092,-5.9113,-5.9119,-5.9124,-5.9129,-5.8989,-5.9118,-5.9118,-5.9117,-5.9117,-5.9117,0,-5.852,-5.8551,-5.8608,-5.8673,-5.8721,-5.8713,-5.8763,-5.8804,-5.8866,-5.8909,-5.8959,-5.9032,-5.9092,-5.9125,-5.9184,-5.922,-5.9219,-5.9235,-5.9233,-5.9239,-5.9139,-5.9121,-5.9236,-5.9236,-5.9235,-5.9235,-5.9235,-5.9235,-5.8588,-5.8668,-5.8684,-5.8782,-5.8813,-5.8882,-5.8912,-5.8951,-5.8986,-5.9069,-5.912,-5.9141,-5.9181,-5.9243,-5.9297,-5.9305,-5.9327,-5.9345,-5.9352,-5.9258,-5.9246,-5.9234,-5.9217,-5.935,-5.935,-5.9447,-5.9448,-5.9449]}]]